Location: Jetmore Oil Field
(38.1181°N, 99.9337°W)
Time: 19:14:15
(UTC+00:00)

GEOS 3 Rocket - Pass Details

Date: 17 February 2020
Orbit: 777 x 842 km, 115.0° (Epoch: 05 April)

Event Time Altitude Azimuth Distance (km) Brightness Sun altitude
Rises 10:58:49 0° 33° (NNE) 3,372 7.4 -29.9°
Reaches altitude 10° 11:01:07 10° 33° (NNE) 2,443 6.5 -29.5°
Enters shadow 11:05:58 74° 16° (NNE) 871 3.7 -28.5°
